Hourly Weather Abancay

Today, 22 October, Thursday

Time Temperature Precipitation Wind Pressure Humidity
00:00 +12°C° 0 mm 1 mps 544 mmHg 92%
01:00 +12°C° 0 mm 1 mps 544 mmHg 92%
02:00 +12°C° 0 mm 1 mps 544 mmHg 91%
03:00 +11°C° 0 mm 0 mps 544 mmHg 90%
04:00 +11°C° 0 mm 0 mps 544 mmHg 90%
05:00 +11°C° 0 mm 0 mps 544 mmHg 85%
06:00 +12°C° 0 mm 0 mps 545 mmHg 81%
07:00 +14°C° 0 mm 1 mps 546 mmHg 77%
08:00 +15°C° 0.1 mm 1 mps 546 mmHg 70%
09:00 +17°C° 0.1 mm 2 mps 547 mmHg 63%
10:00 +19°C° 0.1 mm 2 mps 547 mmHg 56%
11:00 +20°C° 0.5 mm 2 mps 547 mmHg 53%
12:00 +21°C° 0.5 mm 3 mps 547 mmHg 50%
13:00 +22°C° 0.5 mm 3 mps 547 mmHg 48%
14:00 +21°C° 0.7 mm 3 mps 546 mmHg 50%
15:00 +21°C° 0.7 mm 3 mps 546 mmHg 52%
16:00 +20°C° 0.7 mm 3 mps 545 mmHg 54%
17:00 +19°C° 0.6 mm 3 mps 545 mmHg 63%
18:00 +17°C° 0.6 mm 2 mps 545 mmHg 72%
19:00 +15°C° 0.6 mm 2 mps 544 mmHg 81%
20:00 +15°C° 0.2 mm 2 mps 545 mmHg 85%
21:00 +14°C° 0.2 mm 2 mps 545 mmHg 88%
22:00 +14°C° 0.2 mm 1 mps 545 mmHg 92%
23:00 +14°C° 0 mm 1 mps 545 mmHg 92%

Tomorrow, 23 October, Friday

Time Temperature Precipitation Wind Pressure Humidity
00:00 +13°C° 0 mm 1 mps 544 mmHg 92%
01:00 +13°C° 0 mm 1 mps 544 mmHg 92%
02:00 +13°C° 0 mm 1 mps 544 mmHg 92%
03:00 +13°C° 0 mm 1 mps 544 mmHg 91%
04:00 +13°C° 0 mm 1 mps 544 mmHg 91%
05:00 +12°C° 0.1 mm 0 mps 544 mmHg 87%
06:00 +13°C° 0.1 mm 0 mps 545 mmHg 83%
07:00 +13°C° 0.1 mm 0 mps 545 mmHg 80%
08:00 +16°C° 0.6 mm 1 mps 546 mmHg 71%
09:00 +19°C° 0.6 mm 1 mps 547 mmHg 63%
10:00 +21°C° 0.6 mm 1 mps 547 mmHg 54%
11:00 +21°C° 1 mm 2 mps 547 mmHg 52%
12:00 +21°C° 1 mm 2 mps 546 mmHg 50%
13:00 +22°C° 1 mm 3 mps 546 mmHg 48%
14:00 +22°C° 1 mm 3 mps 546 mmHg 51%
15:00 +21°C° 1 mm 3 mps 545 mmHg 53%
16:00 +20°C° 1 mm 3 mps 545 mmHg 56%
17:00 +18°C° 1.5 mm 3 mps 544 mmHg 66%
18:00 +16°C° 1.5 mm 3 mps 544 mmHg 76%
19:00 +14°C° 1.5 mm 2 mps 544 mmHg 86%
20:00 +14°C° 0.8 mm 2 mps 544 mmHg 85%
21:00 +14°C° 0.8 mm 2 mps 545 mmHg 83%
22:00 +14°C° 0.8 mm 2 mps 545 mmHg 82%
23:00 +14°C° 0.3 mm 2 mps 545 mmHg 82%

Day after tomorrow, 24 October, Saturday

Time Temperature Precipitation Wind Pressure Humidity
00:00 +13°C° 0.3 mm 2 mps 544 mmHg 82%
01:00 +13°C° 0.3 mm 2 mps 544 mmHg 82%
02:00 +13°C° 0.1 mm 1 mps 544 mmHg 83%
03:00 +13°C° 0.1 mm 1 mps 544 mmHg 83%
04:00 +13°C° 0.1 mm 1 mps 543 mmHg 83%
05:00 +13°C° 0.1 mm 1 mps 544 mmHg 80%
06:00 +14°C° 0.1 mm 1 mps 544 mmHg 78%
07:00 +14°C° 0.1 mm 1 mps 545 mmHg 75%
08:00 +16°C° 0.1 mm 1 mps 545 mmHg 67%
09:00 +19°C° 0.1 mm 1 mps 546 mmHg 60%
10:00 +21°C° 0.1 mm 1 mps 546 mmHg 52%
11:00 +22°C° 0.6 mm 1 mps 546 mmHg 48%
12:00 +23°C° 0.6 mm 2 mps 546 mmHg 45%
13:00 +24°C° 0.6 mm 3 mps 546 mmHg 41%
14:00 +22°C° 0.5 mm 3 mps 545 mmHg 46%
15:00 +21°C° 0.5 mm 3 mps 545 mmHg 51%
16:00 +20°C° 0.5 mm 3 mps 544 mmHg 56%
17:00 +19°C° 0.4 mm 2 mps 544 mmHg 63%
18:00 +18°C° 0.4 mm 1 mps 544 mmHg 70%
19:00 +16°C° 0.4 mm 1 mps 544 mmHg 76%
20:00 +16°C° 0.3 mm 1 mps 544 mmHg 78%
21:00 +15°C° 0.3 mm 1 mps 544 mmHg 79%
22:00 +15°C° 0.3 mm 1 mps 544 mmHg 81%
23:00 +14°C° 0.1 mm 1 mps 544 mmHg 81%

, 25 October, Sunday

Time Temperature Precipitation Wind Pressure Humidity
00:00 +14°C° 0.1 mm 1 mps 543 mmHg 81%
01:00 +14°C° 0.1 mm 1 mps 543 mmHg 81%
02:00 +13°C° 0 mm 1 mps 543 mmHg 81%
03:00 +13°C° 0 mm 1 mps 542 mmHg 80%
04:00 +13°C° 0 mm 1 mps 542 mmHg 80%
05:00 +14°C° 0 mm 1 mps 543 mmHg 76%
06:00 +15°C° 0 mm 1 mps 544 mmHg 72%
07:00 +15°C° 0 mm 0 mps 544 mmHg 67%
08:00 +18°C° 0.1 mm 1 mps 545 mmHg 61%
09:00 +20°C° 0.1 mm 1 mps 546 mmHg 55%
10:00 +22°C° 0.1 mm 1 mps 546 mmHg 49%
11:00 +23°C° 0.6 mm 2 mps 546 mmHg 47%
12:00 +24°C° 0.6 mm 3 mps 546 mmHg 44%
13:00 +25°C° 0.6 mm 3 mps 546 mmHg 42%
14:00 +24°C° 0.7 mm 3 mps 545 mmHg 46%
15:00 +22°C° 0.7 mm 3 mps 544 mmHg 50%
16:00 +22°C° 0.7 mm 3 mps 544 mmHg 54%
17:00 +20°C° 1.6 mm 3 mps 544 mmHg 63%
18:00 +18°C° 1.6 mm 3 mps 544 mmHg 71%
19:00 +16°C° 1.6 mm 3 mps 544 mmHg 79%
20:00 +15°C° 1.4 mm 2 mps 544 mmHg 81%
21:00 +14°C° 1.4 mm 2 mps 544 mmHg 83%
22:00 +14°C° 1.4 mm 1 mps 544 mmHg 85%
23:00 +14°C° 0 mm 1 mps 543 mmHg 85%

25 October, Sunday

Time Temperature Precipitation Wind Pressure Humidity
00:00 +14°C° 0.1 mm 1 mps 543 mmHg 81%
01:00 +14°C° 0.1 mm 1 mps 543 mmHg 81%
02:00 +13°C° 0 mm 1 mps 543 mmHg 81%
03:00 +13°C° 0 mm 1 mps 542 mmHg 80%
04:00 +13°C° 0 mm 1 mps 542 mmHg 80%
05:00 +14°C° 0 mm 1 mps 543 mmHg 76%
06:00 +15°C° 0 mm 1 mps 544 mmHg 72%
07:00 +15°C° 0 mm 0 mps 544 mmHg 67%
08:00 +18°C° 0.1 mm 1 mps 545 mmHg 61%
09:00 +20°C° 0.1 mm 1 mps 546 mmHg 55%
10:00 +22°C° 0.1 mm 1 mps 546 mmHg 49%
11:00 +23°C° 0.6 mm 2 mps 546 mmHg 47%
12:00 +24°C° 0.6 mm 3 mps 546 mmHg 44%
13:00 +25°C° 0.6 mm 3 mps 546 mmHg 42%
14:00 +24°C° 0.7 mm 3 mps 545 mmHg 46%
15:00 +22°C° 0.7 mm 3 mps 544 mmHg 50%
16:00 +22°C° 0.7 mm 3 mps 544 mmHg 54%
17:00 +20°C° 1.6 mm 3 mps 544 mmHg 63%
18:00 +18°C° 1.6 mm 3 mps 544 mmHg 71%
19:00 +16°C° 1.6 mm 3 mps 544 mmHg 79%
20:00 +15°C° 1.4 mm 2 mps 544 mmHg 81%
21:00 +14°C° 1.4 mm 2 mps 544 mmHg 83%
22:00 +14°C° 1.4 mm 1 mps 544 mmHg 85%
23:00 +14°C° 0 mm 1 mps 543 mmHg 85%

26 October, Monday

Time Temperature Precipitation Wind Pressure Humidity
00:00 +13°C° 0 mm 1 mps 543 mmHg 84%
01:00 +13°C° 0 mm 1 mps 543 mmHg 84%
02:00 +13°C° 0 mm 1 mps 542 mmHg 83%
03:00 +13°C° 0 mm 1 mps 542 mmHg 82%
04:00 +13°C° 0 mm 1 mps 542 mmHg 82%
05:00 +14°C° 0 mm 1 mps 543 mmHg 78%
06:00 +14°C° 0 mm 0 mps 543 mmHg 74%
07:00 +15°C° 0 mm 0 mps 544 mmHg 69%
08:00 +18°C° 0 mm 1 mps 545 mmHg 64%
09:00 +19°C° 0 mm 2 mps 545 mmHg 58%
10:00 +20°C° 0 mm 2 mps 546 mmHg 53%
11:00 +21°C° 0.2 mm 2 mps 545 mmHg 49%
12:00 +22°C° 0.2 mm 3 mps 545 mmHg 46%
13:00 +25°C° 0.2 mm 3 mps 545 mmHg 43%
14:00 +24°C° 0.2 mm 3 mps 545 mmHg 44%
15:00 +24°C° 0.2 mm 3 mps 545 mmHg 46%
16:00 +23°C° 0.2 mm 4 mps 544 mmHg 48%
17:00 +20°C° 1.5 mm 3 mps 544 mmHg 59%
18:00 +18°C° 1.5 mm 3 mps 544 mmHg 69%
19:00 +16°C° 1.5 mm 3 mps 543 mmHg 80%
20:00 +15°C° 0.3 mm 2 mps 543 mmHg 80%
21:00 +15°C° 0.3 mm 2 mps 544 mmHg 79%
22:00 +15°C° 0.3 mm 2 mps 544 mmHg 79%
23:00 +14°C° 0 mm 1 mps 543 mmHg 80%

27 October, Tuesday

Time Temperature Precipitation Wind Pressure Humidity
00:00 +14°C° 0 mm 1 mps 543 mmHg 81%
01:00 +13°C° 0 mm 0 mps 542 mmHg 82%
02:00 +12°C° 0 mm 0 mps 542 mmHg 83%
03:00 +12°C° 0 mm 0 mps 542 mmHg 83%
04:00 +12°C° 0 mm 0 mps 541 mmHg 84%
05:00 +13°C° 0 mm 0 mps 542 mmHg 80%
06:00 +13°C° 0 mm 0 mps 543 mmHg 76%
07:00 +14°C° 0 mm 0 mps 544 mmHg 72%
08:00 +18°C° 0.1 mm 1 mps 544 mmHg 66%
09:00 +20°C° 0.1 mm 1 mps 545 mmHg 59%
10:00 +21°C° 0.1 mm 2 mps 546 mmHg 52%
11:00 +23°C° 0.2 mm 2 mps 545 mmHg 49%
12:00 +24°C° 0.2 mm 3 mps 545 mmHg 46%
13:00 +25°C° 0.2 mm 3 mps 545 mmHg 42%
14:00 +24°C° 0.2 mm 3 mps 544 mmHg 45%
15:00 +24°C° 0.2 mm 3 mps 544 mmHg 48%
16:00 +22°C° 0.2 mm 4 mps 543 mmHg 51%
17:00 +20°C° 1.8 mm 4 mps 543 mmHg 60%
18:00 +18°C° 1.8 mm 3 mps 543 mmHg 70%
19:00 +17°C° 1.8 mm 3 mps 543 mmHg 79%
20:00 +16°C° 0.4 mm 3 mps 543 mmHg 82%
21:00 +15°C° 0.4 mm 2 mps 543 mmHg 84%
22:00 +15°C° 0.4 mm 1 mps 543 mmHg 87%
23:00 +14°C° 0 mm 1 mps 543 mmHg 89%
Show more